Skip Page Navigation
NASA JPL Caltech
NASA Logo - Jet Propulsion Laboratory + View the NASA Portal
+ Center for Near-Earth Object Studies
JPL Home Earth Solar System Stars & Galaxies Technology
JPL Solar System Dynamics
BODIES ORBITS EPHEMERIDES TOOLS PHYSICAL DATA DISCOVERY FAQ SITE MAP
JPL Small-Body Database Browser
Search: [ help ]  
186592 (2003 BH25)
Classification: Inner Main-belt Asteroid          SPK-ID: 2186592
Ephemeris | Orbit Diagram | Orbital Elements | Mission Design | Physical Parameters | Discovery Circumstances ]

[ show orbit diagram ]
Orbital Elements at Epoch 2459200.5 (2020-Dec-17.0) TDB
Reference: JPL 17 (heliocentric ecliptic J2000)
 Element Value Uncertainty (1-sigma)   Units 
e .0504709137231418 3.5066e-08  
a 1.90201623010399 5.9496e-09 au
q 1.806019733054396 6.6929e-08 au
i 23.52884080559435 3.8617e-06 deg
node 151.7241208249332 1.1142e-05 deg
peri 9.913320012157035 4.8062e-05 deg
M 274.6639904842322 4.7061e-05 deg
tp 2459427.616969366165
(2021-Aug-01.11696937)
0.00012558 TDB
period 958.1196664312238
2.62
4.4955e-06
1.231e-08
d
yr
n .3757359467851417 1.763e-09 deg/d
Q 1.998012727153584 6.2499e-09 au
  Orbit Determination Parameters
   # obs. used (total)      708  
   data-arc span      6589 days (18.04 yr)  
   first obs. used      2003-01-25  
   last obs. used      2021-02-08  
   planetary ephem.      DE441  
   SB-pert. ephem.      SB441-N16  
   condition code      0  
   norm. resid. RMS      .58081  
   source      ORB  
   producer      Otto Matic  
   solution date      2021-Apr-13 21:51:53  

Additional Information
 Earth MOID = .817301 au 
 Jupiter MOID = 2.99148 au 
 T_jup = 3.843 
[ show covariance matrix ]

Ephemeris | Orbit Diagram | Orbital Elements | Mission Design | Physical Parameters | Discovery Circumstances ]

Physical Parameter Table
Parameter Symbol Value Units Sigma Reference Notes
absolute magnitude H 16.68   n/a MPCxxxxx  

186592 (2003 BH25)          Discovered 2003-Jan-25 by NEAT at Palomar
Reference: 20080520/Numbers.arcLast Updated: 2008-05-22
Ephemeris | Orbit Diagram | Orbital Elements | Mission Design | Physical Parameters | Discovery Circumstances ]
ABOUT SSD CREDITS/AWARDS PRIVACY/COPYRIGHT GLOSSARY LINKS
FirstGov 2021-Jun-20 23:06 UT
(server date/time)  
NASA Home Page
Site Manager:   Ryan S. Park
Webmaster  Alan B. Chamberlin